Weather History for KBJC - October, 2013

Change the Weather History Date:

Saturday, October 19, 2013

  Actual Average Record
Temperature  
Mean Temperature 48 °F -  
Max Temperature 62 °F 61 °F 86 °F (2003)
Min Temperature 33 °F 38 °F 19 °F (1984)
Degree Days  
Heating Degree Days 18    
Moisture  
Dew Point 19 °F    
Average Humidity 36    
Maximum Humidity 81    
Minimum Humidity 16    
Precipitation  
Precipitation 0.00 in - - ()
Sea Level Pressure  
Sea Level Pressure 30.04 in    
Wind  
Wind Speed 8 mph (West)    
Max Wind Speed 23 mph    
Max Gust Speed 30 mph    
Visibility 11 miles    
Events      
Averages and records for this station are not official NWS values.
T = Trace of Precipitation, MM = Missing Value Source: NWS Daily Summary

Daily Weather History Graph

Daily Weather History Graph

Search for Another Location

Airport or City:

Trip Planner

Search our weather history database for the weather conditions in past years. The results will help you decide how hot, cold, wet, or windy it might be!

Date:

Astronomy

Oct. 19, 2013 Rise Set
Actual Time 7:15 AM MDT 6:14 PM MDT
Civil Twilight 6:47 AM MDT 6:42 PM MDT
Nautical Twilight 6:16 AM MDT 7:13 PM MDT
Astronomical Twilight 5:45 AM MDT 7:44 PM MDT
Moon 6:44 PM MDT (10/19) 7:55 AM MDT (10/19)
Length of Visible Light 11h 54m
Length of Day
10h 59m
Full, 99% of the Moon is Illuminated
Oct 19
Full
Oct 26
Last Quarter
Nov 3
New
Nov 9
First Quarter
Nov 17
Full

Hourly Weather History & Observations

Time (MDT) Temp. Windchill Dew Point Humidity Pressure Visibility Wind Dir Wind Speed Gust Speed Precip Events Conditions
12:15 AM 35.6 °F - 26.6 °F 70% 30.12 in 10.0 mi Calm Calm - N/A   Clear
12:35 AM 33.8 °F - 28.4 °F 81% 30.11 in 10.0 mi Calm Calm - N/A   Clear
12:55 AM 37.4 °F 29.3 °F 21.2 °F 52% 30.10 in 10.0 mi West 12.7 mph - N/A   Clear
1:15 AM 41.0 °F 33.5 °F 21.2 °F 45% 30.10 in 10.0 mi West 13.8 mph - N/A   Clear
1:35 AM 41.0 °F 33.5 °F 19.4 °F 42% 30.10 in 10.0 mi West 13.8 mph - N/A   Clear
1:54 AM 37.4 °F 28.9 °F 21.2 °F 52% 30.10 in 10.0 mi West 13.8 mph - N/A   Clear
2:14 AM 41.0 °F 33.9 °F 19.4 °F 42% 30.10 in 10.0 mi West 12.7 mph - N/A   Clear
2:35 AM 37.4 °F 30.3 °F 19.4 °F 48% 30.09 in 10.0 mi West 10.4 mph - N/A   Clear
2:55 AM 39.2 °F 37.0 °F 19.4 °F 45% 30.09 in 10.0 mi SW 3.5 mph - N/A   Clear
3:15 AM 41.0 °F 36.4 °F 17.6 °F 39% 30.08 in 10.0 mi West 6.9 mph - N/A   Clear
3:35 AM 41.0 °F 37.1 °F 19.4 °F 42% 30.08 in 10.0 mi West 5.8 mph - N/A   Clear
3:55 AM 41.0 °F 37.1 °F 19.4 °F 42% 30.08 in 10.0 mi West 5.8 mph - N/A   Clear
4:15 AM 41.0 °F 37.1 °F 17.6 °F 39% 30.07 in 10.0 mi West 5.8 mph - N/A   Clear
4:35 AM 41.0 °F 36.4 °F 17.6 °F 39% 30.07 in 10.0 mi West 6.9 mph - N/A   Clear
4:55 AM 42.8 °F 37.0 °F 17.6 °F 36% 30.06 in 10.0 mi WNW 10.4 mph - N/A   Clear
5:15 AM 41.0 °F 36.4 °F 19.4 °F 42% 30.06 in 10.0 mi West 6.9 mph - N/A   Clear
5:35 AM 41.0 °F 38.0 °F 19.4 °F 42% 30.06 in 10.0 mi WSW 4.6 mph - N/A   Clear
5:47 AM 41.0 °F 37.1 °F 17.6 °F 39% 30.06 in 30.0 mi SSW 5.8 mph - N/A   Partly Cloudy
5:55 AM 42.8 °F 40.1 °F 17.6 °F 36% 30.06 in 10.0 mi West 4.6 mph - N/A   Clear
6:47 AM 37.4 °F 34.9 °F 21.2 °F 52% 30.05 in 30.0 mi SSW 3.5 mph - N/A   Scattered Clouds
7:47 AM 44.6 °F - 19.4 °F 37% 30.05 in 30.0 mi Calm Calm - N/A   Scattered Clouds
8:56 AM 42.8 °F 41.1 °F 24.8 °F 49% 30.05 in 50.0 mi Variable 3.5 mph - N/A   Scattered Clouds
9:55 AM 48.2 °F - 26.6 °F 43% 30.06 in 70.0 mi Variable 3.5 mph - N/A   Mostly Cloudy
10:47 AM 57.2 °F - 17.6 °F 21% 30.05 in 70.0 mi West 13.8 mph - N/A   Scattered Clouds
11:47 AM 59.0 °F - 17.6 °F 20% 30.04 in 70.0 mi West 12.7 mph - N/A   Scattered Clouds
12:54 PM 62.6 °F - 17.6 °F 18% 30.02 in 70.0 mi West 16.1 mph 20.7 mph N/A   Scattered Clouds
1:47 PM 62.6 °F - 15.8 °F 16% 30.00 in 50.0 mi West 11.5 mph - N/A   Scattered Clouds
2:47 PM 60.8 °F - 17.6 °F 19% 29.99 in 50.0 mi West 20.7 mph 28.8 mph N/A   Scattered Clouds
3:47 PM 62.6 °F - 17.6 °F 18% 29.98 in 50.0 mi West 21.9 mph 28.8 mph N/A   Scattered Clouds
4:47 PM 59.0 °F - 17.6 °F 20% 29.97 in 50.0 mi WSW 20.7 mph 26.5 mph N/A   Scattered Clouds
5:47 PM 57.2 °F - 17.6 °F 21% 29.95 in 50.0 mi West 19.6 mph 29.9 mph N/A   Scattered Clouds
6:45 PM 57.2 °F - 15.8 °F 20% 29.96 in 15.0 mi West 20.7 mph 27.6 mph N/A   Scattered Clouds
7:45 PM 55.4 °F - 15.8 °F 21% 29.96 in 15.0 mi West 18.4 mph 25.3 mph N/A   Scattered Clouds
8:48 PM 55.4 °F - 17.6 °F 23% 29.96 in 30.0 mi West 23.0 mph - N/A   Scattered Clouds
9:45 PM 55.4 °F - 17.6 °F 23% 29.94 in 15.0 mi West 21.9 mph 28.8 mph N/A   Scattered Clouds
11:15 PM 51.8 °F - 19.4 °F 28% 29.94 in 10.0 mi West 8.1 mph - N/A   Clear
11:35 PM 51.8 °F - 19.4 °F 28% 29.93 in 10.0 mi West 9.2 mph 17.3 mph N/A   Clear
11:55 PM 51.8 °F - 19.4 °F 28% 29.93 in 10.0 mi WSW 5.8 mph - N/A   Clear